Previsão horária em Senador Canedo

Hoje, 27 Novembro, Sexta-feira

Tempo Temperatura Precipitação Vento Pressão Humidade
00:00 +20°C° 0 mm 2 m/s 694 mmHg 85%
01:00 +19°C° 0 mm 2 m/s 694 mmHg 86%
02:00 +19°C° 0 mm 2 m/s 694 mmHg 88%
03:00 +19°C° 0 mm 2 m/s 694 mmHg 87%
04:00 +19°C° 0 mm 2 m/s 694 mmHg 88%
05:00 +19°C° 0 mm 2 m/s 694 mmHg 88%
06:00 +20°C° 0 mm 1 m/s 694 mmHg 88%
07:00 +21°C° 0 mm 2 m/s 695 mmHg 80%
08:00 +24°C° 0 mm 3 m/s 696 mmHg 72%
09:00 +27°C° 0 mm 4 m/s 697 mmHg 63%
10:00 +28°C° 0 mm 4 m/s 697 mmHg 58%
11:00 +29°C° 0 mm 3 m/s 697 mmHg 54%
12:00 +31°C° 0 mm 3 m/s 696 mmHg 49%
13:00 +31°C° 0 mm 3 m/s 696 mmHg 48%
14:00 +31°C° 0 mm 3 m/s 695 mmHg 48%
15:00 +31°C° 0 mm 3 m/s 695 mmHg 47%
16:00 +30°C° 0 mm 3 m/s 694 mmHg 53%
17:00 +29°C° 0 mm 3 m/s 694 mmHg 59%
18:00 +27°C° 0 mm 2 m/s 694 mmHg 65%
19:00 +26°C° 0 mm 2 m/s 694 mmHg 70%
20:00 +24°C° 0 mm 2 m/s 695 mmHg 74%
21:00 +23°C° 0 mm 2 m/s 695 mmHg 78%
22:00 +23°C° 0 mm 2 m/s 695 mmHg 80%
23:00 +21°C° 0 mm 2 m/s 695 mmHg 82%

Amanhã, 28 Novembro, Sábado

Tempo Temperatura Precipitação Vento Pressão Humidade
00:00 +21°C° 0 mm 2 m/s 695 mmHg 84%
01:00 +20°C° 0 mm 2 m/s 695 mmHg 85%
02:00 +20°C° 0 mm 2 m/s 694 mmHg 87%
03:00 +20°C° 0 mm 2 m/s 694 mmHg 89%
04:00 +20°C° 0 mm 2 m/s 694 mmHg 89%
05:00 +20°C° 0 mm 2 m/s 694 mmHg 89%
06:00 +20°C° 0 mm 2 m/s 694 mmHg 89%
07:00 +22°C° 0 mm 3 m/s 695 mmHg 81%
08:00 +25°C° 0 mm 4 m/s 696 mmHg 73%
09:00 +27°C° 0 mm 5 m/s 697 mmHg 64%
10:00 +28°C° 0 mm 5 m/s 697 mmHg 60%
11:00 +29°C° 0 mm 5 m/s 697 mmHg 56%
12:00 +32°C° 0 mm 4 m/s 697 mmHg 52%
13:00 +32°C° 0 mm 4 m/s 696 mmHg 51%
14:00 +32°C° 0 mm 4 m/s 695 mmHg 51%
15:00 +32°C° 0 mm 4 m/s 695 mmHg 51%
16:00 +30°C° 0 mm 3 m/s 695 mmHg 56%
17:00 +29°C° 0 mm 3 m/s 694 mmHg 62%
18:00 +28°C° 0 mm 3 m/s 694 mmHg 68%
19:00 +26°C° 0 mm 3 m/s 694 mmHg 71%
20:00 +25°C° 0 mm 3 m/s 695 mmHg 74%
21:00 +24°C° 0 mm 3 m/s 695 mmHg 77%
22:00 +22°C° 0 mm 3 m/s 695 mmHg 76%
23:00 +22°C° 0 mm 3 m/s 695 mmHg 75%

Depois de amanhã, 29 Novembro, Domingo

Tempo Temperatura Precipitação Vento Pressão Humidade
00:00 +21°C° 0 mm 3 m/s 695 mmHg 74%
01:00 +21°C° 0 mm 3 m/s 695 mmHg 75%
02:00 +20°C° 0 mm 3 m/s 694 mmHg 76%
03:00 +20°C° 0 mm 3 m/s 694 mmHg 76%
04:00 +20°C° 0 mm 3 m/s 694 mmHg 77%
05:00 +19°C° 0 mm 3 m/s 694 mmHg 78%
06:00 +19°C° 0 mm 3 m/s 695 mmHg 78%
07:00 +21°C° 0 mm 3 m/s 695 mmHg 73%
08:00 +23°C° 0 mm 4 m/s 696 mmHg 68%
09:00 +26°C° 0 mm 5 m/s 697 mmHg 63%
10:00 +27°C° 0 mm 5 m/s 697 mmHg 59%
11:00 +29°C° 0 mm 4 m/s 697 mmHg 55%
12:00 +30°C° 0 mm 4 m/s 697 mmHg 52%
13:00 +30°C° 0 mm 4 m/s 696 mmHg 51%
14:00 +30°C° 0 mm 3 m/s 695 mmHg 51%
15:00 +30°C° 0 mm 3 m/s 695 mmHg 51%
16:00 +29°C° 0 mm 3 m/s 695 mmHg 56%
17:00 +28°C° 0 mm 3 m/s 694 mmHg 61%
18:00 +27°C° 0 mm 2 m/s 694 mmHg 66%
19:00 +26°C° 0 mm 2 m/s 694 mmHg 70%
20:00 +24°C° 0 mm 2 m/s 694 mmHg 73%
21:00 +23°C° 0 mm 2 m/s 695 mmHg 76%
22:00 +21°C° 0 mm 2 m/s 695 mmHg 77%
23:00 +21°C° 0 mm 3 m/s 694 mmHg 78%

30 Novembro, Segunda-feira

Tempo Temperatura Precipitação Vento Pressão Humidade
00:00 +21°C° 0 mm 3 m/s 694 mmHg 79%
01:00 +20°C° 0 mm 3 m/s 694 mmHg 80%
02:00 +20°C° 0 mm 3 m/s 694 mmHg 81%
03:00 +20°C° 0 mm 3 m/s 693 mmHg 82%
04:00 +20°C° 0 mm 3 m/s 693 mmHg 82%
05:00 +19°C° 0 mm 3 m/s 694 mmHg 82%
06:00 +19°C° 0 mm 2 m/s 694 mmHg 82%
07:00 +21°C° 0 mm 3 m/s 694 mmHg 74%
08:00 +25°C° 0 mm 4 m/s 695 mmHg 65%
09:00 +27°C° 0 mm 5 m/s 695 mmHg 56%
10:00 +28°C° 0 mm 4 m/s 695 mmHg 53%
11:00 +29°C° 0 mm 4 m/s 695 mmHg 49%
12:00 +31°C° 0 mm 3 m/s 695 mmHg 45%
13:00 +31°C° 0 mm 3 m/s 695 mmHg 43%
14:00 +31°C° 0 mm 2 m/s 694 mmHg 41%
15:00 +32°C° 0 mm 2 m/s 694 mmHg 39%
16:00 +30°C° 0 mm 2 m/s 693 mmHg 45%
17:00 +29°C° 0 mm 2 m/s 693 mmHg 51%
18:00 +28°C° 0 mm 2 m/s 692 mmHg 57%
19:00 +26°C° 0 mm 2 m/s 693 mmHg 60%
20:00 +25°C° 0 mm 2 m/s 693 mmHg 62%
21:00 +24°C° 0 mm 2 m/s 693 mmHg 65%
22:00 +23°C° 0 mm 2 m/s 693 mmHg 67%
23:00 +23°C° 0 mm 2 m/s 693 mmHg 70%

1 Dezembro, Terça-feira

Tempo Temperatura Precipitação Vento Pressão Humidade
00:00 +21°C° 0 mm 2 m/s 693 mmHg 72%
01:00 +21°C° 0 mm 2 m/s 692 mmHg 73%
02:00 +21°C° 0 mm 2 m/s 692 mmHg 74%
03:00 +20°C° 0 mm 2 m/s 692 mmHg 74%
04:00 +20°C° 0 mm 2 m/s 692 mmHg 75%
05:00 +20°C° 0 mm 2 m/s 693 mmHg 75%
06:00 +20°C° 0 mm 2 m/s 693 mmHg 75%
07:00 +22°C° 0 mm 3 m/s 694 mmHg 68%
08:00 +26°C° 0 mm 3 m/s 694 mmHg 61%
09:00 +29°C° 0 mm 4 m/s 695 mmHg 53%
10:00 +30°C° 0 mm 3 m/s 695 mmHg 48%
11:00 +31°C° 0 mm 3 m/s 695 mmHg 43%
12:00 +34°C° 0 mm 2 m/s 695 mmHg 38%
13:00 +34°C° 0 mm 2 m/s 695 mmHg 39%
14:00 +32°C° 0 mm 2 m/s 694 mmHg 40%
15:00 +32°C° 0 mm 2 m/s 693 mmHg 41%
16:00 +31°C° 0 mm 2 m/s 693 mmHg 47%
17:00 +30°C° 0 mm 2 m/s 693 mmHg 52%
18:00 +29°C° 0 mm 2 m/s 692 mmHg 58%
19:00 +27°C° 0 mm 2 m/s 692 mmHg 60%
20:00 +26°C° 0 mm 2 m/s 692 mmHg 63%
21:00 +25°C° 0 mm 2 m/s 692 mmHg 65%
22:00 +24°C° 0 mm 1 m/s 693 mmHg 66%
23:00 +24°C° 0 mm 1 m/s 693 mmHg 66%

2 Dezembro, Quarta-feira

Tempo Temperatura Precipitação Vento Pressão Humidade
00:00 +23°C° 0 mm 1 m/s 693 mmHg 67%
01:00 +23°C° 0 mm 1 m/s 693 mmHg 68%
02:00 +23°C° 0 mm 1 m/s 692 mmHg 70%
03:00 +22°C° 0 mm 1 m/s 692 mmHg 71%
04:00 +22°C° 0 mm 1 m/s 692 mmHg 72%
05:00 +22°C° 0 mm 1 m/s 693 mmHg 74%
06:00 +22°C° 0 mm 1 m/s 693 mmHg 75%
07:00 +25°C° 0 mm 1 m/s 694 mmHg 66%
08:00 +27°C° 0 mm 2 m/s 695 mmHg 58%
09:00 +30°C° 0 mm 2 m/s 696 mmHg 50%
10:00 +31°C° 0 mm 2 m/s 695 mmHg 47%
11:00 +32°C° 0 mm 2 m/s 695 mmHg 45%
12:00 +32°C° 0 mm 1 m/s 695 mmHg 42%
13:00 +32°C° 0 mm 1 m/s 694 mmHg 43%
14:00 +32°C° 0 mm 2 m/s 694 mmHg 44%
15:00 +32°C° 0 mm 2 m/s 693 mmHg 45%
16:00 +31°C° 0 mm 2 m/s 693 mmHg 50%
17:00 +30°C° 0 mm 2 m/s 692 mmHg 54%
18:00 +29°C° 0 mm 2 m/s 692 mmHg 59%
19:00 +28°C° 0 mm 2 m/s 692 mmHg 61%
20:00 +26°C° 0 mm 2 m/s 692 mmHg 64%
21:00 +25°C° 0 mm 2 m/s 693 mmHg 66%
22:00 +25°C° 0 mm 2 m/s 693 mmHg 67%
23:00 +24°C° 0 mm 1 m/s 693 mmHg 68%
Mostrar mais

Necessitamos do seu Consentimento

A Meteoprog e os seus Fornecedores de Serviços podem armazenar e aceder a dados pessoais como cookies, identificadores do dispositivo ou outras tecnologias semelhantes existentes no seu dispositivo e processar estes dados para personalizar conteúdos e anúncios, assim como funcionalidades nas redes sociais e análise de tráfego.

  • Armazenar e/ou aceder a informações no seu dispositivo

    Os cookies, identificadores do dispositivo ou outras informações podem ser armazenados ou acedidos no seu dispositivo, para os fins acima indicados.

  • Anúncios e conteúdos personalizados, medição de anúncios e conteúdos, dados sobre o público-alvo e desenvolvimento de produtos

    Os anúncios e os conteúdos podem ser personalizados com base num perfil. Podem ser adicionados dados adicionais para uma maior personalização dos anúncios e dos conteúdos. A eficácia dos anúncios e dos conteúdos pode ser medida. Podem ser obtidas informações sobre o público que visualizou os anúncios e os conteúdos. Estes dados podem ser usados para desenvolver ou melhorar sistemas, softwares ou a experiência do utilizador.

Ao clicar em "Eu concordo”, permitirá o uso de cookies, identificadores do dispositivo e web beacons mencionados ou outras tecnologias semelhantes. As configurações do navegador do seu dispositivo podem ser alteradas.

Para certos fins, podem ser invocados interesses legítimos ao invés de consentimento. Pode ler mais informação sobre este assunto na nossa Política de Privacidade e Cookies.